| time (UTC) | temp F | wind direction | speed MPH | gust MPH | rain 1hr in | rain 24hr in | rain mn in | humidity % | barometer mb |
| 20260904122141 | 71 | 90 | 0.0 | 0.0 | 0.00 | 0.00 | 0.00 | 96 | 1041.4 |
| 20260904120640 | 71 | 102 | 0.0 | 4.0 | 0.00 | 0.00 | 0.00 | 97 | 1041.1 |
| 20260904115137 | 71 | 77 | 0.0 | 5.0 | 0.00 | 0.00 | 0.00 | 97 | 1041.0 |
| 20260904113637 | 72 | 81 | 0.0 | 4.0 | 0.00 | 0.00 | 0.00 | 98 | 1040.5 |
| 20260904112134 | 72 | 32 | 0.0 | 5.0 | 0.00 | 0.00 | 0.00 | 98 | 1040.1 |
| 20260904110632 | 73 | 84 | 0.0 | 3.0 | 0.00 | 0.00 | 0.00 | 98 | 1040.3 |
| 20260904105132 | 73 | 90 | 2.0 | 3.0 | 0.00 | 0.00 | 0.00 | 98 | 1039.9 |
| 20260904103631 | 73 | 172 | 0.0 | 0.0 | 0.00 | 0.00 | 0.00 | 98 | 1039.5 |
| 20260904102129 | 73 | 172 | 0.0 | 0.0 | 0.00 | 0.00 | 0.00 | 98 | 1039.6 |
| 20260904100629 | 73 | 157 | 0.0 | 1.0 | 0.00 | 0.00 | 0.00 | 98 | 1039.6 |
| 20260904095125 | 73 | 172 | 0.0 | 0.0 | 0.00 | 0.00 | 0.00 | 97 | 1040.0 |
| 20260904093624 | 73 | 172 | 0.0 | 0.0 | 0.00 | 0.00 | 0.00 | 97 | 1039.4 |
| 20260904092121 | 73 | 240 | 0.0 | 0.0 | 0.00 | 0.00 | 0.00 | 97 | 1039.2 |
| 20260904090618 | 73 | 240 | 0.0 | 0.0 | 0.00 | 0.00 | 0.00 | 97 | 1039.1 |
| 20260904085114 | 73 | 240 | 0.0 | 0.0 | 0.00 | 0.00 | 0.00 | 97 | 1039.1 |
| 20260904083613 | 73 | 237 | 0.0 | 2.0 | 0.00 | 0.00 | 0.00 | 97 | 1039.2 |
| 20260904082111 | 73 | 209 | 0.0 | 2.0 | 0.00 | 0.00 | 0.00 | 97 | 1039.2 |
| 20260904080609 | 73 | 180 | 0.0 | 1.0 | 0.00 | 0.00 | 0.00 | 97 | 1040.2 |
| 20260904075106 | 73 | 117 | 0.0 | 0.0 | 0.00 | 0.00 | 0.00 | 97 | 1040.1 |
| 20260904073601 | 73 | 105 | 0.0 | 0.0 | 0.00 | 0.00 | 0.00 | 97 | 1039.7 |
| 20260904072101 | 73 | 180 | 0.0 | 0.0 | 0.00 | 0.00 | 0.00 | 97 | 1039.7 |
| 20260904070556 | 73 | 120 | 0.0 | 0.0 | 0.00 | 0.00 | 0.00 | 96 | 1040.0 |
| 20260904065054 | 73 | 120 | 0.0 | 0.0 | 0.00 | 0.00 | 0.00 | 96 | 1039.8 |
| 20260904063552 | 73 | 194 | 0.0 | 1.0 | 0.00 | 0.00 | 0.00 | 96 | 1039.7 |
| 20260904062049 | 73 | 216 | 2.0 | 4.0 | 0.00 | 0.00 | 0.00 | 96 | 1039.7 |
| 20260904060549 | 73 | 180 | 0.0 | 1.0 | 0.00 | 0.00 | 0.00 | 95 | 1040.1 |
| 20260904055047 | 74 | 188 | 0.0 | 2.0 | 0.00 | 0.00 | 0.00 | 95 | 1040.6 |
| 20260904053543 | 74 | 180 | 0.0 | 3.0 | 0.00 | 0.00 | 0.00 | 95 | 1040.8 |
| 20260904052043 | 74 | 127 | 0.0 | 0.0 | 0.00 | 0.00 | 0.00 | 95 | 1040.7 |
| 20260904050541 | 74 | 90 | 0.0 | 0.0 | 0.00 | 0.00 | 0.00 | 94 | 1041.0 |
| 20260904045038 | 74 | 103 | 0.0 | 3.0 | 0.00 | 0.05 | 0.05 | 94 | 1041.0 |
| 20260904043538 | 74 | 112 | 0.0 | 4.0 | 0.00 | 0.05 | 0.05 | 93 | 1041.0 |
| 20260904042037 | 74 | 66 | 0.0 | 2.0 | 0.00 | 0.05 | 0.05 | 93 | 1040.8 |
| 20260904040534 | 74 | 81 | 0.0 | 3.0 | 0.00 | 0.05 | 0.05 | 93 | 1041.0 |
| 20260904035030 | 74 | 90 | 4.0 | 4.0 | 0.00 | 0.05 | 0.05 | 93 | 1041.1 |
| 20260904033528 | 74 | 90 | 0.0 | 2.0 | 0.00 | 0.05 | 0.05 | 92 | 1041.2 |
| 20260904032026 | 75 | 111 | 1.0 | 2.0 | 0.00 | 0.05 | 0.05 | 92 | 1041.5 |
| 20260904030524 | 74 | 90 | 0.0 | 3.0 | 0.00 | 0.05 | 0.05 | 92 | 1041.6 |
| 20260904025020 | 75 | 103 | 2.0 | 5.0 | 0.00 | 0.05 | 0.05 | 92 | 1041.2 |
| 20260904023519 | 75 | 105 | 3.0 | 4.0 | 0.00 | 0.05 | 0.05 | 91 | 1041.3 |
| 20260904022018 | 75 | 120 | 0.0 | 3.0 | 0.00 | 0.05 | 0.05 | 91 | 1041.2 |
| 20260904020514 | 75 | 90 | 1.0 | 4.0 | 0.00 | 0.05 | 0.05 | 90 | 1041.1 |
| 20260904015014 | 75 | 117 | 2.0 | 2.0 | 0.00 | 0.05 | 0.05 | 90 | 1041.1 |
| 20260904013512 | 75 | 98 | 1.0 | 2.0 | 0.00 | 0.05 | 0.05 | 90 | 1040.8 |
| 20260904012008 | 76 | 83 | 0.0 | 2.0 | 0.00 | 0.05 | 0.05 | 89 | 1040.4 |
| 20260904010506 | 76 | 110 | 0.0 | 3.0 | 0.00 | 0.05 | 0.05 | 89 | 1040.5 |
| 20260904005002 | 76 | 36 | 0.0 | 2.0 | 0.00 | 0.05 | 0.05 | 88 | 1040.4 |
| 20260904003500 | 77 | 99 | 0.0 | 1.0 | 0.00 | 0.05 | 0.05 | 87 | 1039.9 |
| 20260904001956 | 77 | 90 | 0.0 | 0.0 | 0.00 | 0.05 | 0.05 | 86 | 1039.6 |
| 20260904000452 | 78 | 85 | 2.0 | 4.0 | 0.00 | 0.05 | 0.05 | 84 | 1039.5 |
| 20260903234949 | 79 | 32 | 0.0 | 4.0 | 0.00 | 0.05 | 0.05 | 80 | 1039.6 |
| 20260903233448 | 80 | 90 | 1.0 | 4.0 | 0.00 | 0.05 | 0.05 | 77 | 1039.7 |
| 20260903231944 | 82 | 82 | 0.0 | 5.0 | 0.00 | 0.05 | 0.05 | 73 | 1039.9 |
| 20260903230441 | 83 | 74 | 2.0 | 9.0 | 0.00 | 0.05 | 0.05 | 75 | 1039.8 |
| 20260903224941 | 86 | 157 | 0.0 | 4.0 | 0.00 | 0.05 | 0.05 | 75 | 1040.0 |
| 20260903223438 | 89 | 171 | 0.0 | 3.0 | 0.00 | 0.05 | 0.05 | 72 | 1039.8 |
| 20260903221937 | 88 | 144 | 2.0 | 3.0 | 0.00 | 0.05 | 0.05 | 72 | 1039.7 |
| 20260903220435 | 88 | 225 | 2.0 | 3.0 | 0.00 | 0.05 | 0.05 | 72 | 1039.9 |
| 20260903214933 | 88 | 205 | 4.0 | 4.0 | 0.00 | 0.05 | 0.05 | 72 | 1040.0 |
| 20260903213430 | 87 | 228 | 0.0 | 2.0 | 0.00 | 0.05 | 0.05 | 72 | 1039.8 |
| 20260903211928 | 85 | 180 | 0.0 | 4.0 | 0.00 | 0.05 | 0.05 | 74 | 1040.0 |
| 20260903210424 | 85 | 213 | 2.0 | 4.0 | 0.00 | 0.05 | 0.05 | 74 | 1040.2 |
| 20260903204920 | 84 | 258 | 0.0 | 2.0 | 0.00 | 0.05 | 0.05 | 76 | 1040.5 |
| 20260903203419 | 84 | 114 | 1.0 | 3.0 | 0.00 | 0.05 | 0.05 | 75 | 1040.7 |
| 20260903201914 | 85 | 180 | 0.0 | 3.0 | 0.00 | 0.05 | 0.05 | 74 | 1040.5 |
| 20260903200410 | 84 | 127 | 0.0 | 2.0 | 0.00 | 0.05 | 0.05 | 75 | 1040.6 |
| 20260903194908 | 84 | 270 | 0.0 | 2.0 | 0.00 | 0.05 | 0.05 | 74 | 1041.0 |
| 20260903193407 | 82 | 188 | 0.0 | 3.0 | 0.00 | 0.05 | 0.05 | 76 | 1040.9 |
| 20260903191906 | 84 | 96 | 3.0 | 5.0 | 0.00 | 0.05 | 0.05 | 75 | 1041.1 |
| 20260903190401 | 82 | 127 | 3.0 | 6.0 | 0.00 | 0.05 | 0.05 | 78 | 1041.0 |
| 20260903184857 | 82 | 82 | 0.0 | 6.0 | 0.00 | 0.05 | 0.05 | 77 | 1040.9 |
| 20260903183355 | 81 | 99 | 5.0 | 5.0 | 0.00 | 0.05 | 0.05 | 79 | 1040.7 |
| 20260903181854 | 77 | 90 | 0.0 | 2.0 | 0.00 | 0.05 | 0.05 | 83 | 1040.8 |
| 20260903180349 | 79 | 90 | 2.0 | 3.0 | 0.00 | 0.05 | 0.05 | 82 | 1041.2 |
| 20260903174849 | 77 | 75 | 1.0 | 6.0 | 0.00 | 0.05 | 0.05 | 87 | 1041.4 |
| 20260903173345 | 75 | 84 | 2.0 | 2.0 | 0.00 | 0.05 | 0.05 | 90 | 1041.6 |
| 20260903171843 | 73 | 340 | 1.0 | 5.0 | 0.00 | 0.05 | 0.05 | 93 | 1041.7 |
| 20260903170344 | 72 | 105 | 3.0 | 3.0 | 0.00 | 0.05 | 0.05 | 94 | 1042.3 |
| 20260903164843 | 72 | 326 | 3.0 | 3.0 | 0.02 | 0.05 | 0.05 | 93 | 1042.6 |
| 20260903163340 | 72 | 304 | 2.0 | 2.0 | 0.02 | 0.04 | 0.04 | 93 | 1043.1 |
| 20260903161840 | 73 | 117 | 1.0 | 6.0 | 0.00 | 0.04 | 0.04 | 92 | 1042.8 |
| 20260903160335 | 75 | 180 | 1.0 | 2.0 | 0.17 | 0.03 | 0.03 | 91 | 1042.8 |
| 20260903154830 | 79 | 355 | 2.0 | 6.0 | 0.00 | 0.00 | 0.00 | 84 | 1042.7 |
| 20260903153328 | 80 | 299 | 2.0 | 3.0 | 0.00 | 0.00 | 0.00 | 83 | 1041.9 |
| 20260903151827 | 81 | 320 | 0.0 | 2.0 | 0.00 | 0.00 | 0.00 | 83 | 1042.0 |
| 20260903150323 | 81 | 277 | 1.0 | 3.0 | 0.00 | 0.00 | 0.00 | 82 | 1041.9 |
| 20260903144818 | 82 | 0 | 0.0 | 5.0 | 0.00 | 0.00 | 0.00 | 80 | 1041.9 |
| 20260903143317 | 84 | 234 | 0.0 | 2.0 | 0.00 | 0.00 | 0.00 | 76 | 1040.9 |
| 20260903141816 | 84 | 221 | 2.0 | 6.0 | 0.00 | 0.00 | 0.00 | 77 | 1040.8 |
| 20260903140313 | 85 | 250 | 2.0 | 6.0 | 0.00 | 0.00 | 0.00 | 75 | 1040.6 |
| 20260903134808 | 85 | 0 | 0.0 | 4.0 | 0.00 | 0.00 | 0.00 | 74 | 1040.4 |
| 20260903133304 | 83 | 276 | 2.0 | 5.0 | 0.00 | 0.00 | 0.00 | 77 | 1040.4 |
| 20260903131800 | 83 | 210 | 3.0 | 5.0 | 0.00 | 0.00 | 0.00 | 78 | 1040.3 |
| 20260903130255 | 82 | 230 | 3.0 | 5.0 | 0.00 | 0.00 | 0.00 | 81 | 1040.3 |
| 20260903124754 | 80 | 180 | 0.0 | 3.0 | 0.00 | 0.00 | 0.00 | 84 | 1040.3 |
| 20260903123253 | 79 | 270 | 2.0 | 3.0 | 0.00 | 0.00 | 0.00 | 86 | 1040.4 |